Total_Precipitation_Accumulation
0.33 0.33 0.38 0.49 0.48 0.36 0.40 0.49 0.49 0.52 0.82 0.91 0.78 0.88 0.86 0.78 0.74 0.76 0.86 1.04 1.32 1.36 1.00 0.90 1.07 1.81 1.62 2.06 1.67 1.31 0.63 0.33 0.85 1.79 1.28 1.04 0.73 0.89 0.51 0.23 0.91 0.79 0.52 0.42 0.47 0.38 0.29
0.39 0.38 0.43 0.48 0.43 0.42 0.44 0.60 0.70 0.77 0.89 0.95 1.09 0.94 0.71 0.66 0.71 0.85 1.12 1.47 1.56 1.43 0.87 0.71 1.48 1.72 1.42 1.59 1.36 1.42 0.69 0.53 0.90 1.64 1.38 1.21 0.86 1.36 0.78 0.52 0.67 0.69 0.75 0.57 0.73 0.55 0.43
0.37 0.40 0.46 0.46 0.45 0.51 0.54 0.70 0.77 0.80 1.09 0.99 1.13 1.01 0.75 0.64 0.60 0.70 0.85 1.11 1.52 1.52 1.04 1.01 1.37 1.43 1.56 1.58 1.22 1.59 0.68 0.71 0.88 1.40 1.54 1.15 0.81 1.22 1.28 0.84 0.35 0.77 0.92 1.04 0.93 0.75 0.66
0.41 0.44 0.47 0.42 0.47 0.59 0.73 0.73 0.72 0.79 1.08 1.26 1.26 0.89 0.63 0.62 0.57 0.56 0.57 0.65 0.59 0.83 1.16 1.16 1.57 1.29 1.76 1.70 1.35 1.51 0.94 0.80 0.93 1.40 1.83 1.50 1.01 1.09 1.17 1.25 0.78 0.84 1.51 1.54 1.00 1.27 1.01
0.48 0.50 0.44 0.44 0.51 0.72 0.86 0.74 0.70 0.77 0.93 1.38 1.49 0.90 0.65 0.57 0.52 0.64 0.77 0.84 0.74 0.74 0.99 1.28 1.42 1.65 1.45 1.57 1.02 1.11 1.25 1.15 1.39 1.65 2.45 2.24 1.46 1.21 1.02 1.49 1.69 0.98 1.31 1.12 0.97 1.02 1.41
0.52 0.50 0.46 0.52 0.60 0.74 0.86 0.81 0.74 1.05 1.14 1.01 1.10 0.73 0.58 0.41 0.41 0.64 1.85 1.75 1.83 1.39 1.28 1.49 1.84 2.13 1.67 1.60 1.00 0.87 1.35 1.35 1.76 1.99 3.49 3.73 2.53 1.30 1.12 1.21 1.37 0.69 0.68 0.75 0.78 0.69 1.04
0.53 0.50 0.57 0.56 0.58 0.62 0.78 0.97 0.93 1.34 0.89 0.74 0.61 0.51 0.55 0.48 0.71 1.08 1.83 2.51 2.24 1.67 1.56 2.02 1.98 1.78 1.47 1.06 0.59 0.85 1.15 2.35 2.52 2.58 3.12 3.54 2.47 1.00 0.73 0.74 0.49 0.55 0.44 0.65 0.56 0.55 0.64
0.57 0.54 0.55 0.59 0.63 0.65 0.74 1.05 1.22 0.85 0.73 0.77 0.65 0.64 0.73 0.61 0.70 1.08 1.44 2.31 1.91 1.61 2.43 2.37 1.32 1.19 1.01 0.72 0.99 0.78 1.24 3.57 2.84 2.30 2.43 2.64 1.35 0.41 0.67 0.92 0.49 0.43 0.40 0.76 0.87 0.71 0.75
0.42 0.43 0.51 0.64 0.69 0.72 0.83 1.12 1.11 0.96 0.93 0.84 0.78 0.86 0.72 0.61 0.60 0.74 0.86 1.49 1.47 1.47 2.28 3.08 2.28 1.73 1.25 1.12 1.01 0.97 1.72 3.04 2.31 1.92 1.93 1.55 0.74 0.58 0.81 1.40 0.68 0.36 0.19 0.45 1.27 0.95 0.66
0.37 0.47 0.55 0.58 0.65 0.71 0.86 1.13 0.99 1.08 1.08 0.89 0.82 0.82 0.71 0.71 0.65 0.66 0.81 1.30 1.40 1.46 2.19 3.58 2.32 2.01 1.35 1.25 1.22 0.81 1.54 2.23 2.21 1.91 2.24 1.89 0.66 0.56 0.88 1.57 0.88 0.65 0.15 0.48 0.87 0.86 0.71
0.47 0.49 0.48 0.53 0.64 0.72 1.03 1.08 1.01 0.96 1.05 0.75 0.66 0.56 0.60 0.82 0.92 1.02 0.92 0.90 1.35 1.59 2.63 3.21 2.27 1.68 1.39 1.07 0.96 1.04 1.42 1.55 1.09 1.35 1.88 1.69 0.91 0.76 0.94 0.95 0.75 0.67 0.33 0.80 0.94 0.75 0.79
0.46 0.52 0.60 0.72 0.73 0.82 1.03 1.04 0.95 0.88 0.78 0.69 0.64 0.57 0.75 0.77 0.94 0.74 0.64 1.11 1.30 1.67 2.78 3.08 2.23 1.62 1.01 0.73 0.74 1.05 1.48 1.13 0.98 1.09 1.05 0.92 0.93 0.93 0.78 0.52 0.27 0.24 0.29 0.76 1.25 1.07 1.13
0.45 0.54 0.64 0.70 0.69 0.86 1.17 1.18 0.99 1.13 1.05 1.08 1.13 0.84 0.88 0.69 0.63 0.53 0.96 1.63 1.63 1.45 1.68 1.48 1.36 0.71 0.47 0.56 0.53 0.58 1.00 0.93 0.94 1.20 1.58 1.50 1.24 0.90 0.77 0.36 0.24 0.29 0.74 1.61 1.72 1.56 0.79
0.52 0.60 0.77 0.81 0.88 1.00 1.34 1.29 1.17 1.47 1.73 1.92 1.98 1.31 0.65 0.47 0.48 0.93 1.50 1.37 1.62 1.18 1.11 0.59 0.45 0.53 0.46 0.30 0.44 0.40 0.54 0.51 0.25 0.19 0.91 1.60 2.00 1.15 0.63 0.28 0.34 0.35 0.69 1.41 1.50 0.59 0.50
0.65 0.84 1.02 1.17 1.21 1.35 1.62 1.60 1.54 1.79 1.93 2.40 1.90 1.37 0.71 0.38 0.56 1.27 1.45 1.60 1.36 0.97 0.62 0.21 0.31 0.42 0.45 0.18 0.21 0.30 0.39 0.28 0.17 0.16 0.58 0.68 1.18 0.58 0.28 0.08 0.16 0.34 0.54 0.47 0.82 0.32 0.50
0.94 1.24 1.39 1.40 1.43 1.35 1.44 1.62 1.61 2.17 2.40 2.33 1.43 1.37 1.08 0.58 0.91 1.60 1.58 1.58 0.63 0.43 0.09 0.04 0.22 0.15 0.13 0.10 0.09 0.11 0.19 0.12 0.09 0.08 0.10 0.17 0.62 0.30 0.16 0.13 0.07 0.08 0.15 0.45 0.76 0.92 0.60
1.50 1.45 1.43 1.36 1.39 1.35 1.31 1.52 1.84 2.29 2.48 1.65 1.55 1.86 1.71 0.97 1.40 1.98 1.62 1.16 0.49 0.18 0.05 0.07 0.04 0.01 0.01 0.03 0.03 0.03 0.07 0.11 0.05 0.06 0.02 0.01 0.21 0.30 0.23 0.26 0.10 0.04 0.15 0.25 0.50 0.69 1.07
1.56 1.64 1.69 1.63 1.60 1.54 1.49 1.64 2.11 2.55 2.59 1.97 2.03 2.32 1.98 1.19 1.59 1.67 1.28 0.81 0.56 0.17 0.03 0.01 0.02 0.01 0.01 0.02 0.02 0.01 0.02 0.02 0.01 0.00 0.00 0.00 0.06 0.12 0.14 0.03 0.01 0.02 0.01 0.08 0.61 0.47 0.62
1.97 2.10 2.12 2.15 1.98 1.84 1.83 2.07 2.39 2.68 2.36 1.95 2.49 2.53 2.41 1.58 1.27 0.81 0.53 0.35 0.18 0.12 0.06 0.04 0.04 0.04 0.02 0.02 0.05 0.01 0.00 0.00 0.00 0.00 0.00 0.00 0.05 0.16 0.20 0.16 0.06 0.06 0.02 0.11 0.27 0.59 0.41
1.67 1.97 2.03 1.94 1.75 1.68 1.73 1.93 2.05 2.61 2.07 2.15 2.64 2.64 2.67 2.21 0.88 0.34 0.48 0.42 0.21 0.13 0.07 0.05 0.07 0.05 0.06 0.05 0.02 0.03 0.01 0.00 0.00 0.00 0.00 0.01 0.03 0.06 0.13 0.11 0.20 0.18 0.03 0.10 0.44 0.63 0.15
1.49 1.72 1.85 1.78 1.86 1.67 1.41 1.65 2.05 2.11 1.88 2.33 2.38 1.53 0.88 1.11 0.50 0.31 0.40 0.46 0.24 0.17 0.11 0.06 0.14 0.07 0.09 0.20 0.08 0.04 0.02 0.02 0.00 0.00 0.01 0.05 0.08 0.02 0.02 0.06 0.22 0.20 0.08 0.07 0.32 0.17 0.26
1.96 1.71 1.62 1.72 1.89 2.05 2.00 1.96 1.87 2.01 2.05 2.33 1.75 0.96 0.67 0.54 0.28 0.37 0.50 0.42 0.14 0.08 0.13 0.12 0.15 0.09 0.10 0.19 0.16 0.18 0.10 0.08 0.06 0.02 0.05 0.12 0.28 0.11 0.10 0.05 0.11 0.17 0.05 0.06 0.06 0.02 0.02
2.06 1.92 1.99 2.09 2.01 1.95 1.92 1.90 2.06 2.05 2.37 2.26 1.76 1.05 0.64 0.54 0.28 0.47 0.42 0.15 0.15 0.15 0.18 0.07 0.07 0.11 0.13 0.08 0.07 0.06 0.05 0.03 0.03 0.03 0.09 0.20 0.28 0.36 0.21 0.05 0.14 0.18 0.04 0.02 0.01 0.00 0.01
2.04 2.08 1.83 1.85 1.57 1.61 1.92 1.84 1.56 1.69 1.72 1.44 1.17 0.88 0.83 0.82 0.33 0.17 0.14 0.10 0.10 0.14 0.19 0.08 0.06 0.16 0.11 0.02 0.03 0.03 0.02 0.03 0.04 0.03 0.06 0.15 0.19 0.50 0.32 0.17 0.37 0.14 0.02 0.00 0.00 0.00 0.00
1.75 2.26 2.42 2.32 2.06 1.81 1.64 1.57 1.66 1.71 1.62 1.00 0.81 0.78 0.90 0.75 0.31 0.17 0.08 0.08 0.07 0.09 0.13 0.09 0.06 0.04 0.03 0.07 0.16 0.12 0.04 0.02 0.00 0.00 0.03 0.10 0.29 0.56 0.35 0.27 0.10 0.01 0.00 0.00 0.00 0.00 0.00
1.54 1.64 2.21 2.55 2.29 1.98 2.07 1.87 1.71 1.69 1.39 1.00 0.94 0.81 0.76 0.67 0.35 0.12 0.16 0.14 0.14 0.13 0.20 0.13 0.07 0.05 0.08 0.20 0.33 0.27 0.07 0.02 0.01 0.02 0.01 0.06 0.24 0.64 0.42 0.30 0.03 0.01 0.00 0.00 0.02 0.01 0.00
1.25 1.15 1.36 1.71 2.10 1.59 1.23 1.31 1.36 1.38 1.22 0.95 0.98 0.76 1.07 0.90 0.23 0.08 0.17 0.18 0.14 0.16 0.22 0.12 0.15 0.20 0.25 0.37 0.42 0.17 0.04 0.01 0.01 0.01 0.03 0.10 0.23 0.56 0.37 0.51 0.05 0.00 0.00 0.00 0.00 0.01 0.00
1.34 1.41 1.45 1.52 1.73 1.99 1.93 1.32 1.06 1.09 1.17 1.01 0.77 0.52 0.75 0.64 0.23 0.05 0.03 0.05 0.08 0.15 0.23 0.12 0.28 0.37 0.36 0.49 0.34 0.14 0.04 0.01 0.00 0.00 0.00 0.03 0.06 0.12 0.19 0.37 0.12 0.00 0.00 0.00 0.00 0.00 0.00
1.44 1.47 1.60 1.59 1.67 1.92 2.01 1.76 1.56 1.32 1.18 1.17 0.97 0.49 0.55 0.74 0.49 0.10 0.03 0.01 0.01 0.04 0.11 0.21 0.29 0.18 0.21 0.37 0.39 0.23 0.12 0.04 0.02 0.01 0.00 0.00 0.00 0.00 0.03 0.03 0.00 0.00 0.00 0.00 0.00 0.00 0.00